Flag for Switzerland Weather past 2 weeks in Lucerne, Lucerne, Switzerland

Now
32 °F

Chilly.


Feels Like: 32 °F
Forecast: 24 / 36 °F
Wind: 1 mph from West

Location: Giswil

Current Time: Jan 31, 2015 at 9:09:23 PM

Latest Report: Jan 31, 2015 at 8:00 PM


Visibility: N/A

Pressure: 29.23 "Hg

Humidity: 100%

Dew point: 32 °F

Location of LucerneLocation

Historic Weather in Lucerne — Graph

°F

Lucerne temperature yesterday

Maximum temperature yesterday: 39 °F (at 3:00 AM)
Minimum temperature yesterday: 34 °F (at 9:00 AM)
Average temperature yesterday: 36 °F

Past Weeks' High & Low Weather Summary

 TemperatureHumidityPressure
High40 °F (Jan 17, 3:00 AM)100% (Jan 16, 8:00 PM)30.50 "Hg (Jan 16, 8:00 PM)
Low17 °F (Jan 28, 7:00 AM)50% (Jan 30, 10:00 AM)28.91 "Hg (Jan 30, 1:00 AM)
Average32 °F93%29.94 "Hg
* Reported Jan 16 7:00 PM — Jan 31 7:00 PM, Lucerne, Weather by CustomWeather, © 2014

Note: Actual official high and low records may vary slightly from our data, if they occured in-between our weather recording intervals... More about our weather records

Advertising

Lucerne weather history for previous 24 hours

 ConditionsComfort  
Time TempWeatherWind HumidityBarometerVisibility
7:00 PM
Jan 31
32 °FChilly.No wind100%29.23 "HgN/A
6:00 PM35 °FChilly.1 mph79%29.21 "HgN/A
5:00 PM35 °FChilly.2 mph84%29.18 "HgN/A
4:00 PM37 °FChilly.1 mph73%29.15 "HgN/A
3:00 PM36 °FChilly.No wind68%29.12 "HgN/A
2:00 PM35 °FChilly.1 mph74%29.12 "HgN/A
1:00 PM34 °FChilly.No wind80%29.15 "HgN/A
12:00 PM33 °FChilly.1 mph87%29.15 "HgN/A
11:00 AM28 °FChilly.3 mph96%29.18 "HgN/A
10:00 AM25 °FCold.1 mph100%29.18 "HgN/A
9:00 AM25 °FChilly.3 mph99%29.18 "HgN/A
8:00 AM29 °FChilly.1 mph100%29.15 "HgN/A
7:00 AM26 °FChilly.2 mph100%29.15 "HgN/A
6:00 AM29 °FChilly.2 mph100%29.12 "HgN/A
5:00 AM32 °FChilly.1 mph100%29.12 "HgN/A
3:00 AM33 °FChilly.1 mph99%29.09 "HgN/A
2:00 AM34 °FChilly.2 mph95%29.09 "HgN/A
1:00 AM34 °FChilly.1 mph98%29.06 "HgN/A
12:00 AM34 °FChilly.3 mph92%29.06 "HgN/A
11:00 PM
Jan 30
35 °FChilly.1 mph80%29.03 "HgN/A
10:00 PM34 °FChilly.2 mph82%29.03 "HgN/A
9:00 PM35 °FChilly.12 mph69%29.00 "HgN/A
Weather by CustomWeather, © 2014

See weather overviewHow to use our weather pages